GW0500 Weather Reports


Display with metric or nautical units.
time (UTC)temp
F
wind
direction
speed
MPH
gust
MPH
rain 1hr
in
rain 24hr
in
rain mn
in
humidity
%
barometer
mb
20260904135047 51 0 0.0 0.0 0.00 0.00 0.00 45 1017.8
20260904134601 51 0 0.0 0.0 0.00 0.00 0.00 43 1017.8
20260904134044 51 0 0.0 0.0 0.00 0.00 0.00 44 1017.7
20260904133548 51 0 0.0 0.0 0.00 0.00 0.00 43 1017.6
20260904133101 51 0 0.0 0.0 0.00 0.00 0.00 42 1017.5
20260904132548 51 0 0.0 0.0 0.00 0.00 0.00 42 1017.4
20260904132047 51 0 0.0 0.0 0.00 0.00 0.00 41 1017.4
20260904131634 52 0 0.0 0.0 0.00 0.00 0.00 39 1017.4
20260904131047 52 0 0.0 0.0 0.00 0.00 0.00 42 1017.3
20260904130547 52 0 0.0 0.0 0.00 0.00 0.00 44 1017.3
20260904130058 52 0 0.0 1.0 0.00 0.00 0.00 47 1017.3
20260904125548 52 0 0.0 1.0 0.00 0.00 0.00 47 1017.3
20260904125048 53 0 0.0 0.0 0.00 0.00 0.00 47 1017.3
20260904124559 53 0 0.0 0.0 0.00 0.00 0.00 49 1017.3
20260904124051 53 0 0.0 1.0 0.00 0.00 0.00 50 1017.3
20260904123545 53 0 0.0 1.0 0.00 0.00 0.00 50 1017.3
20260904123106 53 0 0.0 0.0 0.00 0.00 0.00 50 1017.3
20260904122550 53 0 0.0 0.0 0.00 0.00 0.00 50 1017.3
20260904122051 53 0 0.0 0.0 0.00 0.00 0.00 50 1017.2
20260904121604 54 0 0.0 0.0 0.00 0.00 0.00 50 1017.2
20260904121044 54 0 0.0 0.0 0.00 0.00 0.00 50 1017.2
20260904120547 54 0 0.0 0.0 0.00 0.00 0.00 49 1017.3
20260904120100 54 0 0.0 2.0 0.00 0.00 0.00 48 1017.2
20260904115549 54 0 0.0 2.0 0.00 0.00 0.00 48 1017.3
20260904115047 54 0 0.0 2.0 0.00 0.00 0.00 48 1017.3
20260904114600 54 0 0.0 2.0 0.00 0.00 0.00 47 1017.4
20260904114045 54 0 0.0 2.0 0.00 0.00 0.00 46 1017.4
20260904113548 54 0 0.0 1.0 0.00 0.00 0.00 46 1017.4
20260904113101 54 0 0.0 2.0 0.00 0.00 0.00 46 1017.4
20260904112548 54 0 0.0 2.0 0.00 0.00 0.00 46 1017.4
20260904112047 55 0 0.0 2.0 0.00 0.00 0.00 46 1017.5
20260904111606 55 0 0.0 3.0 0.00 0.00 0.00 46 1017.4
20260904111050 55 0 0.0 3.0 0.00 0.00 0.00 47 1017.5
20260904110550 55 0 0.0 2.0 0.00 0.00 0.00 47 1017.3
20260904110057 55 0 0.0 2.0 0.00 0.00 0.00 47 1017.3
20260904105545 55 0 0.0 2.0 0.00 0.00 0.00 47 1017.3
20260904105051 55 0 0.0 3.0 0.00 0.00 0.00 47 1017.3
20260904104606 55 0 0.0 3.0 0.00 0.00 0.00 46 1017.3
20260904104051 55 0 0.0 3.0 0.00 0.00 0.00 44 1017.3
20260904103544 55 0 0.0 3.0 0.00 0.00 0.00 44 1017.2
20260904103110 55 36 0.0 2.0 0.00 0.00 0.00 40 1017.2
20260904102548 55 0 0.0 2.0 0.00 0.00 0.00 37 1017.1
20260904102045 55 0 0.0 2.0 0.00 0.00 0.00 37 1017.2
20260904101600 55 0 0.0 2.0 0.00 0.00 0.00 37 1017.2
20260904101048 55 0 0.0 2.0 0.00 0.00 0.00 35 1017.1
20260904100545 55 0 0.0 1.0 0.00 0.00 0.00 35 1017.0
20260904095545 55 0 0.0 1.0 0.00 0.00 0.00 38 1017.1
20260904095045 55 0 0.0 2.0 0.00 0.00 0.00 39 1017.0
20260904094600 55 0 0.0 2.0 0.00 0.00 0.00 39 1017.0
20260904094045 55 0 0.0 2.0 0.00 0.00 0.00 39 1017.1
20260904093545 55 0 0.0 3.0 0.00 0.00 0.00 40 1017.1
20260904093058 55 0 0.0 3.0 0.00 0.00 0.00 39 1017.1
20260904092548 55 0 0.0 2.0 0.00 0.00 0.00 40 1017.1
20260904092050 55 0 0.0 2.0 0.00 0.00 0.00 40 1017.1
20260904091611 55 0 0.0 2.0 0.00 0.00 0.00 39 1017.1
20260904091050 55 0 0.0 1.0 0.00 0.00 0.00 39 1017.3
20260904090548 55 0 0.0 2.0 0.00 0.00 0.00 39 1017.2
20260904085548 55 0 0.0 0.0 0.00 0.00 0.00 39 1017.3
20260904085047 55 0 0.0 1.0 0.00 0.00 0.00 38 1017.4
20260904084608 55 0 0.0 1.0 0.00 0.00 0.00 37 1017.6
20260904084048 55 0 0.0 2.0 0.00 0.00 0.00 37 1017.6
20260904083547 55 0 0.0 2.0 0.00 0.00 0.00 38 1017.6
20260904083112 56 0 0.0 2.0 0.00 0.00 0.00 38 1017.6
20260904082547 56 0 0.0 2.0 0.00 0.00 0.00 38 1017.6
20260904082052 56 0 0.0 2.0 0.00 0.00 0.00 38 1017.7
20260904081601 56 0 0.0 2.0 0.00 0.00 0.00 39 1017.6
20260904081045 56 0 0.0 2.0 0.00 0.00 0.00 38 1017.7
20260904080546 56 0 0.0 1.0 0.00 0.00 0.00 38 1017.8
20260904075545 56 0 0.0 0.0 0.00 0.00 0.00 38 1017.8
20260904075051 56 0 0.0 1.0 0.00 0.00 0.00 38 1017.8
20260904074609 56 0 0.0 2.0 0.00 0.00 0.00 37 1017.7
20260904074044 56 0 0.0 2.0 0.00 0.00 0.00 37 1017.8
20260904073544 56 0 0.0 1.0 0.00 0.00 0.00 36 1017.9
20260904073104 56 0 0.0 1.0 0.00 0.00 0.00 36 1017.9
20260904072549 57 0 0.0 1.0 0.00 0.00 0.00 34 1018.0
20260904072047 57 0 0.0 1.0 0.00 0.00 0.00 33 1018.0
20260904071605 57 0 0.0 3.0 0.00 0.00 0.00 33 1018.0
20260904071045 57 0 0.0 3.0 0.00 0.00 0.00 33 1017.9
20260904070548 57 0 0.0 3.0 0.00 0.00 0.00 31 1017.9
20260904070129 57 0 0.0 3.0 0.00 0.00 0.00 31 1018.0
20260904065546 57 0 0.0 3.0 0.00 0.00 0.00 30 1017.9
20260904065048 57 0 0.0 3.0 0.00 0.00 0.00 30 1018.0
20260904064601 57 0 0.0 3.0 0.00 0.00 0.00 30 1017.9
20260904064048 57 0 0.0 2.0 0.00 0.00 0.00 30 1017.9
20260904063545 57 0 0.0 3.0 0.00 0.00 0.00 31 1017.9
20260904063106 57 5 0.0 3.0 0.00 0.00 0.00 30 1017.9
20260904062545 57 0 0.0 3.0 0.00 0.00 0.00 32 1017.8
20260904062045 57 0 0.0 1.0 0.00 0.00 0.00 33 1017.7
20260904061558 57 0 0.0 1.0 0.00 0.00 0.00 33 1017.8
20260904061048 57 0 0.0 2.0 0.00 0.00 0.00 35 1017.7
20260904060545 57 0 0.0 2.0 0.00 0.00 0.00 35 1017.8
20260904055545 56 0 0.0 4.0 0.00 0.00 0.00 37 1017.9
20260904055050 56 0 0.0 4.0 0.00 0.00 0.00 35 1017.9
20260904054558 56 14 0.0 2.0 0.00 0.00 0.00 36 1017.9
20260904054048 56 14 0.0 2.0 0.00 0.00 0.00 39 1017.9
20260904053546 56 0 0.0 2.0 0.00 0.00 0.00 39 1017.8
20260904053101 55 0 0.0 0.0 0.00 0.00 0.00 40 1017.8
20260904052545 55 0 0.0 1.0 0.00 0.00 0.00 40 1017.7
20260904052045 55 0 0.0 2.0 0.00 0.00 0.00 38 1017.9
20260904051621 55 0 0.0 2.0 0.00 0.00 0.00 39 1017.9
20260904051044 55 0 0.0 2.0 0.00 0.00 0.00 41 1017.9
20260904050544 55 0 0.0 1.0 0.00 0.00 0.00 44 1017.9
20260904045545 55 0 0.0 0.0 0.00 0.00 0.00 52 1018.1
20260904045043 55 0 0.0 0.0 0.00 0.00 0.00 54 1018.2
20260904044613 55 0 0.0 0.0 0.00 0.00 0.00 53 1018.3
20260904044046 55 0 0.0 0.0 0.00 0.00 0.00 52 1018.2
20260904043551 55 0 0.0 0.0 0.00 0.00 0.00 51 1018.2
20260904043100 55 0 0.0 0.0 0.00 0.00 0.00 51 1018.3
20260904042548 55 0 0.0 0.0 0.00 0.00 0.00 50 1018.3
20260904042046 55 0 0.0 0.0 0.00 0.00 0.00 50 1018.2
20260904041601 55 0 0.0 0.0 0.00 0.00 0.00 49 1018.3
20260904041045 55 0 0.0 1.0 0.00 0.00 0.00 50 1018.2
20260904040545 55 0 0.0 1.0 0.00 0.00 0.00 52 1018.3
20260904040110 55 0 0.0 0.0 0.00 0.00 0.00 54 1018.3
20260904035542 55 0 0.0 0.0 0.00 0.00 0.00 56 1018.2
20260904035044 55 0 0.0 0.0 0.00 0.00 0.00 58 1018.2
20260904034608 55 0 0.0 0.0 0.00 0.00 0.00 61 1018.1
20260904034045 56 0 0.0 1.0 0.00 0.00 0.00 65 1018.1
20260904033545 56 0 0.0 1.0 0.00 0.00 0.00 67 1018.0
20260904033104 56 0 0.0 0.0 0.00 0.00 0.00 71 1018.0
20260904032545 57 0 0.0 0.0 0.00 0.00 0.00 76 1018.0
20260904032044 57 0 0.0 0.0 0.00 0.00 0.00 76 1017.9
20260904031600 57 0 0.0 0.0 0.00 0.00 0.00 76 1017.9
20260904031045 58 0 0.0 0.0 0.00 0.00 0.00 75 1017.9
20260904030542 58 0 0.0 0.0 0.00 0.00 0.00 75 1018.0
20260904030104 58 0 0.0 0.0 0.00 0.00 0.00 74 1018.0
20260904025544 59 0 0.0 0.0 0.00 0.00 0.00 74 1018.0
20260904025049 59 0 0.0 0.0 0.00 0.00 0.00 74 1017.9
20260904024609 59 0 0.0 0.0 0.00 0.00 0.00 73 1017.8
20260904024048 60 0 0.0 0.0 0.00 0.00 0.00 73 1017.9
20260904023543 60 0 0.0 1.0 0.00 0.00 0.00 73 1017.7
20260904023103 61 0 0.0 1.0 0.00 0.00 0.00 73 1017.7
20260904022542 61 0 0.0 0.0 0.00 0.00 0.00 74 1017.7
20260904022045 61 0 0.0 1.0 0.00 0.00 0.00 74 1017.7
20260904021606 61 0 0.0 2.0 0.00 0.00 0.00 74 1017.8
20260904021044 61 0 0.0 2.0 0.00 0.00 0.00 73 1017.7
20260904020545 62 0 0.0 3.0 0.00 0.00 0.00 73 1017.8
20260904020106 62 0 0.0 3.0 0.00 0.00 0.00 72 1017.7
20260904015547 62 155 0.0 4.0 0.00 0.00 0.00 71 1017.8
20260904015048 63 0 1.0 4.0 0.00 0.00 0.00 71 1017.8
20260904014640 63 178 0.0 5.0 0.00 0.00 0.00 70 1017.8
20260904014049 63 206 0.0 5.0 0.00 0.00 0.00 69 1017.8
20260904013545 64 206 1.0 4.0 0.00 0.00 0.00 68 1017.7
20260904013100 64 0 0.0 5.0 0.00 0.00 0.00 67 1017.8
20260904012545 64 0 0.0 6.0 0.00 0.00 0.00 67 1017.9
20260904012044 64 0 0.0 9.0 0.00 0.00 0.00 66 1017.9
20260904011626 65 195 1.0 9.0 0.00 0.00 0.00 65 1017.9
20260904011046 65 150 1.0 4.0 0.00 0.00 0.00 64 1017.9
20260904010548 65 0 0.0 3.0 0.00 0.00 0.00 63 1018.0
20260904010108 66 0 0.0 7.0 0.00 0.00 0.00 62 1018.0
20260904005548 66 126 1.0 7.0 0.00 0.00 0.00 62 1018.0
20260904005045 67 163 0.0 4.0 0.00 0.00 0.00 60 1018.1
20260904004604 67 0 0.0 4.0 0.00 0.00 0.00 59 1018.0
20260904004045 68 205 0.0 9.0 0.00 0.00 0.00 59 1018.0
20260904003545 68 0 2.0 9.0 0.00 0.00 0.00 58 1018.0
20260904003104 68 159 1.0 9.0 0.00 0.00 0.00 58 1018.0
20260904002545 69 185 1.0 9.0 0.00 0.00 0.00 57 1018.0
20260904002046 69 201 0.0 7.0 0.00 0.00 0.00 56 1018.0
20260904001559 69 146 1.0 7.0 0.00 0.00 0.00 56 1017.9
20260904001045 70 178 2.0 5.0 0.00 0.00 0.00 55 1018.0
20260904000549 70 140 2.0 8.0 0.00 0.00 0.00 55 1018.0
20260904000104 70 131 2.0 9.0 0.00 0.00 0.00 54 1017.9
20260903235544 70 302 3.0 12.0 0.00 0.00 0.00 55 1017.9
20260903235045 70 0 4.0 12.0 0.00 0.00 0.00 53 1018.0
20260903234600 71 0 0.0 7.0 0.00 0.00 0.00 53 1018.0
20260903234049 71 102 2.0 7.0 0.00 0.00 0.00 52 1018.0
20260903233545 71 236 3.0 11.0 0.00 0.00 0.00 51 1018.2
20260903233114 72 152 3.0 11.0 0.00 0.00 0.00 50 1018.1
20260903232547 72 163 2.0 11.0 0.00 0.00 0.00 50 1018.1
20260903232045 73 193 4.0 11.0 0.00 0.00 0.00 49 1018.2
20260903231557 73 161 2.0 6.0 0.00 0.00 0.00 49 1018.2
20260903231048 73 310 2.0 9.0 0.00 0.00 0.00 48 1018.4
20260903230545 73 190 2.0 9.0 0.00 0.00 0.00 50 1018.5
20260903230100 73 146 1.0 9.0 0.00 0.00 0.00 50 1018.3
20260903225549 72 187 3.0 10.0 0.00 0.00 0.00 50 1018.4
20260903225047 73 161 1.0 10.0 0.00 0.00 0.00 51 1018.4
20260903224603 73 15 2.0 12.0 0.00 0.00 0.00 51 1018.4
20260903224050 73 0 2.0 14.0 0.00 0.00 0.00 49 1018.4
20260903223545 73 148 2.0 14.0 0.00 0.00 0.00 49 1018.5
20260903223115 74 0 3.0 12.0 0.00 0.00 0.00 49 1018.5
20260903222548 74 126 3.0 11.0 0.00 0.00 0.00 48 1018.5
20260903222048 74 281 1.0 8.0 0.00 0.00 0.00 48 1018.5
20260903221600 75 151 1.0 8.0 0.00 0.00 0.00 47 1018.5
20260903221047 74 157 2.0 10.0 0.00 0.00 0.00 48 1018.5
20260903220547 75 140 3.0 10.0 0.00 0.00 0.00 47 1018.5
20260903220126 75 148 3.0 10.0 0.00 0.00 0.00 45 1018.7
20260903215545 75 126 3.0 10.0 0.00 0.00 0.00 43 1018.6
20260903215045 75 260 2.0 10.0 0.00 0.00 0.00 44 1018.5
20260903214558 75 165 2.0 9.0 0.00 0.00 0.00 43 1018.6
20260903214044 75 242 2.0 10.0 0.00 0.00 0.00 42 1018.6
20260903213544 75 0 3.0 11.0 0.00 0.00 0.00 41 1018.6
20260903213101 75 136 3.0 11.0 0.00 0.00 0.00 39 1018.8
20260903212548 76 69 2.0 11.0 0.00 0.00 0.00 38 1018.6
20260903212048 76 176 2.0 11.0 0.00 0.00 0.00 38 1018.8
20260903211605 76 200 2.0 10.0 0.00 0.00 0.00 35 1019.0
20260903211049 75 131 2.0 10.0 0.00 0.00 0.00 36 1018.7
20260903210548 75 129 4.0 10.0 0.00 0.00 0.00 33 1018.9
20260903205547 75 153 2.0 8.0 0.00 0.00 0.00 36 1018.9
20260903205047 75 55 2.0 8.0 0.00 0.00 0.00 35 1018.9
20260903204603 75 140 2.0 8.0 0.00 0.00 0.00 35 1019.1
20260903204044 75 184 2.0 8.0 0.00 0.00 0.00 35 1019.1
20260903203544 75 138 2.0 10.0 0.00 0.00 0.00 35 1019.1
20260903203108 75 153 2.0 10.0 0.00 0.00 0.00 33 1019.0
20260903202544 75 288 2.0 9.0 0.00 0.00 0.00 31 1019.2
20260903202045 75 175 3.0 10.0 0.00 0.00 0.00 28 1019.3
20260903201602 74 148 1.0 11.0 0.00 0.00 0.00 27 1019.1
20260903201045 75 215 3.0 11.0 0.00 0.00 0.00 26 1019.3
20260903200545 74 148 2.0 9.0 0.00 0.00 0.00 27 1019.3
20260903200058 74 161 2.0 10.0 0.00 0.00 0.00 28 1019.2
20260903195543 75 116 2.0 10.0 0.00 0.00 0.00 28 1019.3
20260903195044 74 229 2.0 10.0 0.00 0.00 0.00 28 1019.3
20260903194600 74 106 3.0 10.0 0.00 0.00 0.00 27 1019.3
20260903194044 74 160 4.0 10.0 0.00 0.00 0.00 29 1019.2
20260903193545 74 217 3.0 17.0 0.00 0.00 0.00 28 1019.2
20260903193104 74 134 3.0 17.0 0.00 0.00 0.00 28 1019.3
20260903192546 74 130 2.0 11.0 0.00 0.00 0.00 27 1019.5
20260903192045 74 0 2.0 14.0 0.00 0.00 0.00 30 1019.4
20260903191559 73 274 2.0 14.0 0.00 0.00 0.00 26 1019.5
20260903191044 73 140 4.0 9.0 0.00 0.00 0.00 25 1019.6
20260903190548 73 97 3.0 9.0 0.00 0.00 0.00 27 1019.7
20260903190107 73 142 3.0 9.0 0.00 0.00 0.00 24 1019.8
20260903185544 73 207 2.0 9.0 0.00 0.00 0.00 26 1019.7
20260903185044 73 163 2.0 9.0 0.00 0.00 0.00 23 1019.8
20260903184605 72 69 3.0 9.0 0.00 0.00 0.00 26 1019.9
20260903184044 72 140 2.0 8.0 0.00 0.00 0.00 29 1019.9
20260903183544 72 210 1.0 9.0 0.00 0.00 0.00 26 1020.0
20260903183106 71 307 2.0 9.0 0.00 0.00 0.00 25 1020.0
20260903182544 71 221 2.0 8.0 0.00 0.00 0.00 27 1020.2
20260903182045 70 189 1.0 7.0 0.00 0.00 0.00 25 1020.0
20260903181604 70 0 1.0 7.0 0.00 0.00 0.00 26 1020.1
20260903181046 70 160 2.0 8.0 0.00 0.00 0.00 25 1020.2
20260903180545 69 150 3.0 8.0 0.00 0.00 0.00 25 1020.2
20260903180106 69 138 3.0 8.0 0.00 0.00 0.00 24 1020.2
20260903175545 70 139 1.0 6.0 0.00 0.00 0.00 23 1020.1
20260903175044 70 136 2.0 8.0 0.00 0.00 0.00 25 1020.1
20260903174604 70 179 2.0 8.0 0.00 0.00 0.00 22 1020.1
20260903174043 69 232 2.0 8.0 0.00 0.00 0.00 23 1020.2
20260903173549 69 161 2.0 8.0 0.00 0.00 0.00 25 1020.1
20260903173102 68 192 0.0 8.0 0.00 0.00 0.00 26 1020.0
20260903172544 68 223 2.0 7.0 0.00 0.00 0.00 26 1020.0
20260903172044 68 134 1.0 6.0 0.00 0.00 0.00 23 1020.0
20260903171607 68 161 1.0 7.0 0.00 0.00 0.00 26 1019.9
20260903171046 67 200 2.0 7.0 0.00 0.00 0.00 24 1020.0
20260903170546 67 160 1.0 6.0 0.00 0.00 0.00 24 1019.9
20260903170126 67 165 1.0 7.0 0.00 0.00 0.00 24 1019.9
20260903165547 67 173 1.0 7.0 0.00 0.00 0.00 28 1019.9
20260903165048 66 161 1.0 8.0 0.00 0.00 0.00 25 1019.8
20260903164559 66 0 2.0 8.0 0.00 0.00 0.00 24 1019.8
20260903164048 66 131 1.0 6.0 0.00 0.00 0.00 23 1019.7
20260903163548 66 128 1.0 6.0 0.00 0.00 0.00 22 1019.7
20260903163056 65 144 1.0 10.0 0.00 0.00 0.00 21 1019.7
20260903162547 65 0 1.0 10.0 0.00 0.00 0.00 19 1019.8
20260903162044 64 340 1.0 9.0 0.00 0.00 0.00 17 1019.8
20260903161604 64 0 1.0 9.0 0.00 0.00 0.00 19 1019.8
20260903161045 63 151 2.0 9.0 0.00 0.00 0.00 18 1019.7
20260903160545 63 184 1.0 6.0 0.00 0.00 0.00 21 1019.7
20260903160107 63 172 1.0 8.0 0.00 0.00 0.00 20 1019.6
20260903155548 62 142 2.0 8.0 0.00 0.00 0.00 20 1019.6
20260903155044 61 225 2.0 6.0 0.00 0.00 0.00 17 1019.5
20260903154607 60 220 0.0 5.0 0.00 0.00 0.00 19 1019.4
20260903154048 58 200 1.0 7.0 0.00 0.00 0.00 19 1019.4
20260903153548 56 0 1.0 7.0 0.00 0.00 0.00 19 1019.5
20260903153104 56 49 0.0 3.0 0.00 0.00 0.00 26 1019.6
20260903152550 55 0 0.0 3.0 0.00 0.00 0.00 27 1019.6
20260903152048 55 54 1.0 3.0 0.00 0.00 0.00 29 1019.5
20260903151559 54 50 1.0 3.0 0.00 0.00 0.00 31 1019.5
20260903151047 54 44 0.0 3.0 0.00 0.00 0.00 28 1019.5
20260903150548 53 41 1.0 3.0 0.00 0.00 0.00 30 1019.5
20260903150111 53 43 0.0 3.0 0.00 0.00 0.00 30 1019.5
20260903145547 52 0 0.0 2.0 0.00 0.00 0.00 31 1019.5
20260903145047 52 0 0.0 2.0 0.00 0.00 0.00 29 1019.5
20260903144625 52 0 0.0 1.0 0.00 0.00 0.00 27 1019.4
20260903144044 52 0 0.0 1.0 0.00 0.00 0.00 27 1019.4
20260903143549 51 0 0.0 0.0 0.00 0.00 0.00 27 1019.4
20260903143058 51 0 0.0 0.0 0.00 0.00 0.00 26 1019.3
20260903142545 51 0 0.0 0.0 0.00 0.00 0.00 26 1019.3
20260903142047 51 0 0.0 0.0 0.00 0.00 0.00 26 1019.2
20260903141604 51 0 0.0 0.0 0.00 0.00 0.00 26 1019.1
20260903141049 51 0 0.0 0.0 0.00 0.00 0.00 27 1019.1
20260903140548 51 0 0.0 0.0 0.00 0.00 0.00 27 1019.1
20260903140100 51 0 0.0 0.0 0.00 0.00 0.00 26 1019.0
20260903135547 51 0 0.0 1.0 0.00 0.00 0.00 26 1019.0